Retour au catalogue

STARLINK-1172

ActifCommunicationsVLEO
NORAD 45074·PAYLOAD·🇺🇸 United States

Lancé Jan 29, 2020 depuis Cape Canaveral Space Force Station

Loading…

Prochains Passages (prochaines 24 heures)

TLE

FraisSource: CelesTrak SupGP

Époque: Sep 14, 2026, 20:49 UTC

1 45074C 20006AG  26257.86784722  .00059760  00000+0  11716-2 0  2575
2 45074  53.1496  87.4752 0002111 141.5417 351.5498 15.46738273    13

Suivez STARLINK-1172 en temps réel avec AllMySat

Download on the App Store